GW0092 Weather Reports


time (UTC)temp
F
wind
direction
speed
knots
gust
knots
rain 1hr
in
rain 24hr
in
rain mn
in
humidity
%
barometer
mb
20260508033100 49 304 0.9 2.6 0.00 0.21 0.21 98 1011.3
20260508031555 48 0 0.0 0.0 0.00 0.21 0.21 97 1011.1
20260508030058 49 0 0.0 0.0 0.00 0.21 0.21 97 1011.0
20260508024556 49 0 0.0 0.0 0.00 0.21 0.21 96 1011.2
20260508023059 50 0 0.0 0.0 0.00 0.21 0.21 97 1011.3
20260508021601 50 0 0.0 0.0 0.00 0.21 0.21 97 1011.4
20260508020059 50 0 0.0 0.0 0.00 0.21 0.21 97 1011.3
20260508014555 50 0 0.0 0.0 0.00 0.21 0.21 96 1011.2
20260508013050 50 0 0.0 0.0 0.00 0.21 0.21 96 1011.0
20260508011553 50 0 0.0 0.0 0.00 0.21 0.21 96 1011.0
20260508010051 51 0 0.0 0.0 0.00 0.21 0.21 96 1010.7
20260508004554 51 0 0.0 0.0 0.00 0.21 0.21 96 1010.6
20260508003053 51 0 0.0 0.0 0.00 0.21 0.21 96 1010.3
20260508001556 51 0 0.0 0.0 0.00 0.21 0.21 96 1010.2
20260508000100 51 0 0.0 0.0 0.01 0.21 0.21 96 1009.9
20260507234603 51 0 0.0 0.0 0.03 0.21 0.21 96 1009.9
20260507233116 52 0 0.0 0.0 0.04 0.21 0.21 95 1010.1
20260507231557 52 0 0.0 0.0 0.04 0.21 0.21 95 1009.7
20260507230059 52 0 0.0 0.0 0.08 0.20 0.20 95 1009.7
20260507224556 52 0 0.0 0.0 0.07 0.18 0.18 95 1010.0
20260507223105 53 0 0.0 0.0 0.06 0.17 0.17 94 1010.2
20260507221556 53 0 0.0 0.0 0.07 0.17 0.17 94 1009.9
20260507220057 53 0 0.0 0.0 0.02 0.12 0.12 92 1010.1
20260507214603 53 0 0.0 0.9 0.01 0.11 0.11 90 1009.9
20260507213104 54 0 0.0 2.6 0.01 0.11 0.11 88 1010.1
20260507211604 54 0 0.0 0.0 0.00 0.10 0.10 88 1010.1
20260507210109 55 0 0.0 0.0 0.00 0.10 0.10 87 1009.6
20260507204554 55 0 0.0 0.0 0.00 0.10 0.10 85 1009.8
20260507203056 55 0 0.0 0.0 0.00 0.10 0.10 85 1010.0
20260507201600 55 0 0.0 0.0 0.00 0.10 0.10 84 1009.5
20260507200058 56 0 0.0 0.9 0.00 0.10 0.10 77 1009.6
20260507194600 56 0 0.0 0.9 0.00 0.10 0.10 77 1009.4
20260507193050 56 0 0.0 1.7 0.00 0.10 0.10 77 1009.7
20260507191558 56 294 0.0 1.7 0.00 0.10 0.10 78 1009.8
20260507190059 56 0 0.0 0.9 0.00 0.10 0.10 85 1009.9
20260507184555 56 338 0.0 0.0 0.00 0.10 0.10 84 1010.3
20260507183112 56 0 0.0 0.0 0.00 0.10 0.10 82 1010.7
20260507181559 56 300 0.0 1.7 0.00 0.10 0.10 81 1010.7
20260507180054 56 0 0.0 0.9 0.00 0.10 0.10 81 1010.5
20260507174605 57 0 0.0 1.7 0.00 0.12 0.10 82 1010.4
20260507173113 57 0 0.0 0.9 0.00 0.12 0.10 82 1010.6
20260507171554 57 0 0.0 4.3 0.00 0.12 0.10 82 1010.9
20260507170100 57 0 0.9 2.6 0.00 0.12 0.10 82 1011.1
20260507164638 57 0 0.0 0.9 0.00 0.12 0.10 81 1011.3
20260507163101 56 321 0.0 4.3 0.00 0.12 0.10 81 1011.7
20260507161600 57 271 0.9 3.5 0.00 0.12 0.10 79 1011.8
20260507160058 56 301 0.0 3.5 0.00 0.12 0.10 81 1011.5
20260507154601 56 331 0.9 4.3 0.00 0.12 0.10 81 1011.9
20260507153059 56 0 0.9 5.2 0.00 0.12 0.10 80 1012.2
20260507151551 56 294 0.0 6.1 0.00 0.12 0.10 81 1012.4
20260507150053 56 341 0.9 5.2 0.00 0.12 0.10 83 1012.2
20260507144551 55 309 2.6 7.0 0.00 0.12 0.10 83 1012.4
20260507143056 55 349 1.7 6.1 0.00 0.12 0.10 84 1012.0
20260507141549 54 302 1.7 4.3 0.00 0.12 0.10 87 1011.9
20260507140053 54 314 0.9 2.6 0.00 0.12 0.10 86 1012.0
20260507134553 53 29 0.9 3.5 0.01 0.12 0.10 86 1012.0
20260507133056 53 0 0.9 4.3 0.01 0.12 0.10 86 1012.2
20260507131557 53 333 1.7 6.1 0.01 0.12 0.10 86 1011.8
20260507130055 54 325 2.6 7.8 0.01 0.12 0.10 87 1011.7
20260507124601 54 344 2.6 5.2 0.00 0.11 0.09 89 1012.4
20260507123051 54 15 0.9 5.2 0.00 0.11 0.09 91 1012.2
20260507121553 54 319 1.7 6.1 0.00 0.11 0.09 92 1012.1
20260507120053 54 310 1.7 5.2 0.00 0.11 0.09 91 1012.0
20260507114608 54 329 3.5 7.0 0.00 0.11 0.09 93 1011.7
20260507113124 54 328 1.7 5.2 0.00 0.11 0.09 94 1011.4
20260507111558 54 27 2.6 7.8 0.00 0.11 0.09 95 1011.4
20260507104600 55 284 2.6 9.6 0.00 0.11 0.09 96 1011.5
20260507103106 55 310 2.6 7.8 0.00 0.11 0.09 97 1011.1
20260507101607 56 17 3.5 10.4 0.00 0.11 0.09 97 1010.8
20260507100115 57 302 3.5 7.0 0.00 0.11 0.09 97 1011.1
20260507094615 57 359 4.3 7.0 0.00 0.11 0.09 97 1010.7
20260507093057 57 352 2.6 7.8 0.02 0.11 0.09 97 1010.5
20260507091636 58 340 5.2 8.7 0.02 0.11 0.09 97 1010.1
20260507084603 60 293 6.1 13.9 0.03 0.11 0.09 96 1009.7
20260507083053 63 302 2.6 5.2 0.01 0.09 0.07 98 1009.2
20260507081559 64 320 0.9 2.6 0.01 0.09 0.07 98 1008.8
20260507080055 63 302 0.0 0.9 0.00 0.08 0.06 98 1008.6
20260507074614 63 268 0.0 0.0 0.00 0.08 0.06 98 1008.5
20260507073055 63 0 0.0 0.9 0.00 0.08 0.06 98 1008.3
20260507071553 63 136 0.0 0.9 0.00 0.08 0.06 97 1008.3
20260507070054 64 0 0.0 1.7 0.06 0.08 0.06 97 1008.6
20260507064557 64 0 0.0 1.7 0.06 0.08 0.06 97 1008.6
20260507063053 64 315 0.9 4.3 0.06 0.08 0.06 97 1008.8
20260507061554 65 323 1.7 9.6 0.06 0.08 0.06 96 1008.7
20260507060101 64 13 1.7 5.2 0.00 0.02 0.00 95 1009.1
20260507054557 63 358 0.9 5.2 0.00 0.02 0.00 96 1009.0
20260507053052 61 0 0.0 0.0 0.00 0.02 0.00 98 1009.0
20260507051553 61 0 0.0 0.0 0.00 0.02 0.00 97 1009.5
20260507050050 61 0 0.0 0.0 0.00 0.02 0.00 98 1009.6
20260507044605 61 0 0.0 0.0 0.00 0.02 0.00 97 1009.9
20260507043104 60 0 0.0 0.0 0.00 0.02 0.00 97 1009.9
20260507041559 61 0 0.0 0.0 0.00 0.02 0.00 97 1009.7
20260507040057 61 0 0.0 0.0 0.00 0.02 0.00 97 1009.4
20260507034555 61 0 0.0 0.0 0.00 0.02 0.02 97 1009.3